Weather reports worldwide

Advertisment
Farnborough, United Kingdom (3768): temperature & dewpoint: 14.06.2019 13:00:00 - 20.06.2019 13:00:00 (BST)Farnborough, United Kingdom (3768): temperature -100cm: 14.06.2019 13:00:00 - 20.06.2019 13:00:00 (BST)Farnborough, United Kingdom (3768): wind speed & gusts: 14.06.2019 13:00:00 - 20.06.2019 13:00:00 (BST)Farnborough, United Kingdom (3768): wind direction: 14.06.2019 13:00:00 - 20.06.2019 13:00:00 (BST)Farnborough, United Kingdom (3768): reduced air pressure: 14.06.2019 13:00:00 - 20.06.2019 13:00:00 (BST)Farnborough, United Kingdom (3768): visibility: 14.06.2019 13:00:00 - 20.06.2019 13:00:00 (BST)Farnborough, United Kingdom (3768): precipitation: 14.06.2019 13:00:00 - 20.06.2019 13:00:00 (BST)
Date & Time tt [°C] td [°C] tt -100cm [°C] ff [km/h] ff [kn] fx [km/h] fx [kn] dd ppp [hPa] vv [km] rr [mm]
20.06.2019 13:00:00 16,0 9,7 - 18 10 - - W 1013,4 10 0,0
20.06.2019 12:00:00 16,5 9,6 - 18 10 - - WSW 1013,2 10 0,0
20.06.2019 11:00:00 15,7 9,5 - 22 12 - - WSW 1012,8 10 0,0
20.06.2019 10:00:00 16,2 10,6 13,7 21 11 - - WSW 1012,5 10 0,0
20.06.2019 09:00:00 14,8 10,8 - 13 7 - - W 1012,3 10 0,0
20.06.2019 08:00:00 13,1 10,6 - 18 10 - - WSW 1012,2 10 0,0
20.06.2019 07:00:00 12,0 10,4 - 15 8 - - W 1011,9 10 0,0
20.06.2019 06:00:00 10,7 9,7 - 11 6 - - W 1011,5 10 0,0
20.06.2019 05:00:00 11,0 10,0 - 13 7 - - WSW 1011,0 10 0,0
20.06.2019 04:00:00 11,8 10,2 - 11 6 - - W 1010,6 10 0,0
20.06.2019 03:00:00 12,4 10,7 - 13 7 - - W 1010,3 10 0,0
20.06.2019 02:00:00 13,3 11,7 - 9 5 - - WSW 1010,2 10 0,0
20.06.2019 01:00:00 14,1 13,1 - 11 6 - - WSW 1010,1 10 0,0
20.06.2019 00:00:00 14,5 13,8 - 5 3 - - WSW 1009,8 10 0,0
19.06.2019 23:00:00 14,8 14,3 - 8 4 - - WSW 1009,7 7 0,0
19.06.2019 22:00:00 15,0 14,3 - 5 3 - - SW 1009,4 10 0,2
19.06.2019 21:00:00 15,3 14,7 - 8 4 - - SW 1008,8 10 0,8
19.06.2019 20:00:00 16,3 14,6 - 9 5 - - WSW 1008,5 6 0,2
19.06.2019 19:00:00 16,7 14,4 - 8 4 - - W 1008,1 10 0,6
19.06.2019 18:00:00 18,5 15,3 - 11 6 - - W 1007,7 10 0,0
19.06.2019 17:00:00 18,5 15,5 - 11 6 - - W 1007,9 10 0,0
19.06.2019 16:00:00 17,8 16,2 - 11 6 - - WNW 1008,0 10 0,6
19.06.2019 15:00:00 17,0 15,3 - 9 5 - - NW 1008,1 4,3 0,0
19.06.2019 14:00:00 17,9 14,3 - 9 5 - - WSW 1008,0 10 0,0
19.06.2019 13:00:00 17,7 14,2 - 9 5 - - WNW 1007,9 10 0,0
19.06.2019 12:00:00 17,5 14,2 - 8 4 - - NW 1007,7 18 0,0
19.06.2019 11:00:00 16,7 14,2 - 9 5 - - NW 1007,8 7 0,0
19.06.2019 10:00:00 15,9 13,8 13,7 9 5 - - NNW 1007,7 10 0,0
19.06.2019 09:00:00 15,2 13,8 - 5 3 - - N 1007,6 9 0,0
19.06.2019 08:00:00 14,6 14,2 - 8 4 - - NW 1007,2 4,9 0,0
19.06.2019 07:00:00 14,1 13,8 - 5 3 - - N 1007,2 4,4 0,0
19.06.2019 06:00:00 13,8 13,6 - 5 3 - - NNW 1007,0 3,7 0,0
19.06.2019 05:00:00 13,9 13,7 - 8 4 - - NNW 1007,0 4,2 0,0
19.06.2019 04:00:00 14,1 14,0 - 4 2 - - - 1007,7 4,6 0,0
19.06.2019 03:00:00 13,7 13,4 - 5 3 - - NNW 1008,0 3,2 0,0
19.06.2019 02:00:00 14,5 14,3 - 8 4 - - NNW 1008,3 4,5 0,0
19.06.2019 01:00:00 14,9 14,6 - 5 3 - - - 1009,5 4,8 0,0
19.06.2019 00:00:00 15,0 14,6 - 8 4 - - N 1009,4 4,1 0,6
18.06.2019 23:00:00 15,2 14,7 - 8 4 - - NE 1010,1 7 0,0
18.06.2019 22:00:00 15,3 14,7 - 8 4 - - NNE 1010,8 8 0,0
18.06.2019 21:00:00 15,5 14,9 - 8 4 - - NW 1011,2 7 0,0
18.06.2019 20:00:00 15,8 15,0 - 5 3 - - - 1011,1 8 0,0
18.06.2019 19:00:00 16,0 14,8 - 9 5 - - ENE 1011,4 10 0,0
18.06.2019 18:00:00 16,2 15,2 - 11 6 - - NE 1011,6 10 0,6
18.06.2019 17:00:00 15,2 14,5 - 8 4 - - N 1012,4 3,4 3,0
18.06.2019 16:00:00 15,6 13,6 - 4 2 - - - 1013,3 5 1,8
18.06.2019 15:00:00 16,3 13,0 - 9 5 - - NNE 1013,1 10 0,0
18.06.2019 14:00:00 16,1 13,2 - 9 5 - - E 1013,8 10 0,2
18.06.2019 13:00:00 15,9 12,3 - 9 5 - - ENE 1014,1 10 0,0
18.06.2019 12:00:00 15,3 11,5 - 2 1 - - W 1014,4 30 0,2
18.06.2019 11:00:00 17,0 12,1 - 13 7 - - SSW 1015,3 10 0,0
18.06.2019 10:00:00 16,7 10,7 13,7 4 2 - - - 1015,1 10 0,0
18.06.2019 09:00:00 15,6 11,2 - 5 3 - - - 1015,5 10 0,0
18.06.2019 08:00:00 14,2 11,5 - 4 2 - - - 1015,6 10 0,0
18.06.2019 07:00:00 12,1 10,9 - 8 4 - - S 1015,7 10 0,0
18.06.2019 06:00:00 9,2 8,6 - 0 0 - - N 1015,7 10 0,0
18.06.2019 05:00:00 9,7 9,1 - 5 3 - - ESE 1015,6 21 0,0
18.06.2019 04:00:00 8,4 7,3 - 5 3 - - SSW 1015,9 10 0,0
18.06.2019 03:00:00 10,1 8,9 - 4 2 - - - 1016,0 10 0,0
18.06.2019 02:00:00 10,0 9,0 - 8 4 - - SSE 1016,6 10 0,0
18.06.2019 01:00:00 10,8 8,5 - 5 3 - - - 1016,9 10 0,0
18.06.2019 00:00:00 11,4 8,8 - 5 3 - - SW 1017,1 10 0,0
17.06.2019 23:00:00 11,9 9,0 - 9 5 - - SSW 1017,3 10 0,0
17.06.2019 22:00:00 13,3 9,6 - 9 5 - - S 1017,2 10 0,0
17.06.2019 21:00:00 15,3 9,8 - 9 5 - - SSW 1016,6 50 0,0
17.06.2019 20:00:00 16,0 9,3 - 16 9 - - SSW 1016,6 10 0,0
17.06.2019 19:00:00 16,8 9,2 - 22 12 - - SSW 1016,7 10 0,0
17.06.2019 18:00:00 18,0 9,0 - 24 13 - - SSW 1016,7 45 0,0
17.06.2019 17:00:00 18,0 9,2 - 24 13 - - SW 1016,9 10 0,0
17.06.2019 16:00:00 18,2 9,2 - 24 13 - - SSW 1017,1 10 0,0
17.06.2019 15:00:00 19,6 10,1 - 26 14 - - WSW 1017,2 10 0,0
17.06.2019 14:00:00 18,1 9,4 - 24 13 - - SW 1017,6 10 0,0
17.06.2019 13:00:00 19,5 10,3 - 24 13 - - SSW 1017,8 10 0,0
17.06.2019 12:00:00 18,0 9,8 - 22 12 - - SSW 1018,0 40 0,0
17.06.2019 11:00:00 16,7 9,2 - 26 14 - - SW 1018,3 10 0,0
17.06.2019 10:00:00 16,2 9,0 13,7 26 14 - - SSW 1018,4 10 0,0
17.06.2019 09:00:00 16,1 9,9 - 21 11 - - SSW 1018,5 10 0,0
17.06.2019 08:00:00 14,6 11,5 - 15 8 - - S 1018,5 10 0,0
17.06.2019 07:00:00 13,4 11,6 - 15 8 - - S 1018,2 10 0,0
17.06.2019 06:00:00 11,5 10,7 - 11 6 - - S 1018,0 10 0,0
17.06.2019 05:00:00 10,8 10,1 - 9 5 - - S 1018,0 16 0,0
17.06.2019 04:00:00 11,7 10,7 - 15 8 - - S 1017,9 10 0,0
17.06.2019 03:00:00 11,5 10,3 - 13 7 - - S 1018,1 10 0,0
17.06.2019 02:00:00 11,8 10,0 - 11 6 - - S 1018,5 10 0,0
17.06.2019 01:00:00 13,1 10,4 - 11 6 - - S 1018,5 10 0,0
17.06.2019 00:00:00 13,5 10,7 - 11 6 - - S 1018,7 28 0,0
16.06.2019 23:00:00 13,7 10,6 - 13 7 - - S 1018,8 10 0,0
16.06.2019 22:00:00 13,8 10,2 - 15 8 - - SSW 1018,7 10 0,0
16.06.2019 21:00:00 15,3 10,3 - 22 12 - - SSW 1018,1 30 0,0
16.06.2019 20:00:00 16,0 10,1 - 22 12 - - SSW 1018,1 10 0,0
16.06.2019 19:00:00 16,7 10,5 - 28 15 52 28 SSW 1017,9 10 0,0
16.06.2019 18:00:00 17,7 11,9 - 26 14 - - SSW 1017,5 10 0,0
16.06.2019 17:00:00 17,1 12,1 - 22 12 46 25 SSW 1017,6 30 0,0
16.06.2019 16:00:00 17,5 12,3 - 29 16 - - SSW 1017,5 10 0,0
16.06.2019 15:00:00 17,7 12,1 - 34 18 55 30 SSW 1017,0 10 0,0
16.06.2019 14:00:00 18,6 12,2 - 31 17 54 29 SSW 1016,7 10 0,0
16.06.2019 13:00:00 18,8 13,0 - 31 17 52 28 SSW 1016,6 10 0,0
16.06.2019 12:00:00 16,4 12,7 - 28 15 - - SSW 1016,4 10 0,0
16.06.2019 11:00:00 15,6 13,6 - 22 12 - - SSW 1016,2 10 0,2
16.06.2019 10:00:00 14,3 13,4 13,7 16 9 - - S 1016,2 9 0,4
16.06.2019 09:00:00 14,0 13,0 - 21 11 - - S 1015,9 10 0,2
16.06.2019 08:00:00 13,4 12,2 - 18 10 - - S 1015,7 10 0,0
16.06.2019 07:00:00 12,1 11,5 - 13 7 - - S 1015,6 10 0,0
16.06.2019 06:00:00 10,4 10,2 - 9 5 - - SSE 1015,5 10 0,0
16.06.2019 05:00:00 8,6 8,4 - 4 2 - - - 1015,6 7 0,0
16.06.2019 04:00:00 9,0 8,7 - 0 0 - - N 1015,4 10 0,0
16.06.2019 03:00:00 9,6 9,1 - 11 6 - - S 1015,4 10 0,0
16.06.2019 02:00:00 10,0 9,3 - 13 7 - - SSW 1015,3 10 0,0
16.06.2019 01:00:00 10,5 9,7 - 13 7 - - SSW 1015,2 10 0,0
16.06.2019 00:00:00 10,4 9,3 - 13 7 - - SSW 1015,0 30 0,0
15.06.2019 23:00:00 11,7 9,4 - 15 8 - - S 1014,4 10 0,0
15.06.2019 22:00:00 11,9 9,5 - 11 6 - - S 1014,0 10 0,0
15.06.2019 21:00:00 12,8 9,1 - 13 7 - - SW 1013,6 55 0,0
15.06.2019 20:00:00 14,4 11,0 - 24 13 - - S 1013,2 10 0,0
15.06.2019 19:00:00 15,0 11,9 - 22 12 - - SSW 1013,1 10 0,0
15.06.2019 18:00:00 15,0 12,5 - 26 14 - - S 1012,9 30 0,0
15.06.2019 17:00:00 16,1 12,3 - 22 12 - - S 1012,8 10 0,0
15.06.2019 16:00:00 15,5 12,6 - 24 13 - - S 1013,0 10 0,0
15.06.2019 15:00:00 15,0 13,0 - 22 12 - - S 1013,0 25 0,6
15.06.2019 14:00:00 14,5 11,8 - 26 14 - - S 1013,1 10 0,0
15.06.2019 13:00:00 15,5 10,5 - 26 14 - - S 1012,9 10 0,0
15.06.2019 12:00:00 15,5 10,5 - 22 12 - - S 1012,5 10 0,0
15.06.2019 11:00:00 16,7 10,8 - 24 13 - - S 1012,2 10 0,0
15.06.2019 10:00:00 15,6 9,7 13,7 24 13 - - SSW 1012,2 10 0,0
15.06.2019 09:00:00 15,4 10,8 - 18 10 - - S 1012,1 10 0,0
15.06.2019 08:00:00 13,2 11,1 - 9 5 - - SSE 1012,2 28 0,0
15.06.2019 07:00:00 12,6 10,6 - 11 6 - - S 1012,0 10 0,0
15.06.2019 06:00:00 11,3 10,7 - 9 5 - - S 1012,1 24 0,0
15.06.2019 05:00:00 10,2 9,3 - 8 4 - - S 1012,1 10 0,0
15.06.2019 04:00:00 11,0 10,0 - 9 5 - - S 1011,8 10 0,0
15.06.2019 03:00:00 10,8 9,9 - 8 4 - - S 1012,2 10 0,0
15.06.2019 02:00:00 11,2 9,6 - 8 4 - - S 1012,2 10 0,0
15.06.2019 01:00:00 11,4 9,5 - 5 3 - - SSE 1012,4 10 0,0
15.06.2019 00:00:00 11,8 9,5 - 8 4 - - S 1012,4 10 0,0
14.06.2019 23:00:00 13,1 9,5 - 9 5 - - SSE 1012,3 10 0,0
14.06.2019 22:00:00 12,5 8,3 - 9 5 - - S 1012,1 10 0,0
14.06.2019 21:00:00 14,6 8,7 - 15 8 - - SSW 1011,6 10 0,0
14.06.2019 20:00:00 15,5 8,8 - 16 9 - - SSW 1011,4 10 0,0
14.06.2019 19:00:00 16,8 9,0 - 24 13 - - SSW 1011,3 10 0,0
14.06.2019 18:00:00 17,4 10,2 - 26 14 - - SSW 1010,9 10 0,0
14.06.2019 17:00:00 16,8 9,7 - 22 12 - - SSW 1010,8 10 0,0
14.06.2019 16:00:00 17,3 9,3 - 31 17 48 26 SW 1010,9 10 0,0
14.06.2019 15:00:00 16,3 10,2 - 26 14 - - SSW 1011,0 10 0,0
14.06.2019 14:00:00 16,4 10,6 - 26 14 - - SSW 1010,7 10 0,0
14.06.2019 13:00:00 17,0 11,2 - 29 16 46 25 SSW 1010,5 10 0,0

tt = temperature
td = dewpoint
tt -100cm = temperature -100cm
ff = wind speed
fx = gusts
dd = wind direction
ppp = reduced air pressure
vv = visibility
rr = precipitation

Next stations